Quillayute, WA
on Tuesday, January 29, 2013

Tuesday
Previous Day Next Day
Daily Summary
 ActualAverageRecord
Temperature
Mean Temperature °F 42°F  
Max Temperature 49°F 48°F 61°F (1998)
Min Temperature 46°F 36°F 10°F (1980)
Degree Days
Heating Degree Days 17 23  
Month to date heating degree days 745 679  
Since 1 July heating degree days 3073 3157  
Cooling Degree Days 0 0  
Month to date cooling degree days 0 0  
Year to date cooling degree days 0 0  
Moisture
Dew Point 43°F   
Average Humidity 87    
Maximum Humidity 93    
Minimum Humidity 80    
Precipitation
Precipitation 0.62 in 0.43 in 3.47 in (1997)
Month to date precipitation 9.20 13.75  
Year to date precipitation 9.20 13.75  
Wind
Wind Speed 7 mph   
Max Wind Speed 17 mph   
Max Gust Speed 28 mph   
Visibility 2 miles   
Events Fog , Rain   

Key: T is trace of precipitation, MM is missing value
Source: NWS Daily Summary
Time(PST)TemperatureDew PointHumidity Pressure Visibility Wind DirectionWind SpeedGust SpeedPrecipitationEvents Conditions
12:00 AM 46.4°F 42.8°F 87% 30.13 in 1.8 miles WNW 9.2 mph - 0.00 in Rain Light Rain
12:23 AM 46.4°F 42.8°F 87% 30.13 in 1.0 miles West 11.5 mph 17.3 mph 0.02 in Rain Light Rain
12:53 AM 46.9°F 43.0°F 86% 30.15 in 1.0 miles WNW 11.5 mph - 0.05 in Rain Light Rain
1:03 AM 46.4°F 42.8°F 87% 30.14 in 1.5 miles WNW 11.5 mph 20.7 mph 0.00 in Rain Light Rain
1:19 AM 46.4°F 42.8°F 87% 30.14 in 2.0 miles WNW 13.8 mph - 0.01 in Rain Light Rain
1:26 AM 46.4°F 42.8°F 87% 30.15 in 1.8 miles West 13.8 mph 18.4 mph 0.02 in Rain Light Rain
1:34 AM 46.4°F 42.8°F 87% 30.15 in 2.0 miles WNW 11.5 mph 20.7 mph 0.02 in Rain Light Rain
1:53 AM 46.9°F 43.0°F 86% 30.16 in 1.2 miles WNW 9.2 mph 19.6 mph 0.03 in Rain Light Rain
2:02 AM 46.4°F 42.8°F 87% 30.15 in 2.0 miles WNW 11.5 mph 17.3 mph 0.00 in Rain Light Rain
2:13 AM 46.4°F 42.8°F 87% 30.16 in 1.2 miles WNW 11.5 mph 20.7 mph 0.01 in Rain Light Rain
2:39 AM 46.4°F 42.8°F 87% 30.17 in 1.8 miles West 9.2 mph 19.6 mph 0.02 in Rain Light Rain
2:53 AM 46.9°F 43.0°F 86% 30.17 in 1.8 miles WNW 10.4 mph 18.4 mph 0.02 in Rain Light Rain
3:01 AM 46.4°F 42.8°F 87% 30.17 in 2.0 miles West 10.4 mph - 0.00 in Rain Light Rain
3:10 AM 46.4°F 42.8°F 87% 30.17 in 1.5 miles WNW 11.5 mph 20.7 mph 0.00 in Rain Light Rain
3:19 AM 46.4°F 42.8°F 87% 30.17 in 1.0 miles West 13.8 mph 23.0 mph 0.01 in Rain Light Rain
3:29 AM 46.4°F 42.8°F 87% 30.17 in 2.0 miles WNW 11.5 mph 20.7 mph 0.01 in Rain Light Rain
3:37 AM 46.4°F 42.8°F 87% 30.18 in 4.0 miles WNW 10.4 mph 20.7 mph 0.01 in   Overcast
3:49 AM 46.4°F 42.8°F 87% 30.18 in 2.0 miles West 13.8 mph 27.6 mph 0.01 in Rain Light Rain
3:53 AM 46.9°F 43.0°F 86% 30.19 in 2.5 miles WNW 10.4 mph 27.6 mph 0.01 in Rain Light Rain
4:01 AM 46.4°F 42.8°F 87% 30.19 in 3.0 miles WNW 11.5 mph 19.6 mph 0.00 in Rain Light Rain
4:07 AM 46.4°F 42.8°F 87% 30.20 in 1.8 miles WNW 12.7 mph 20.7 mph 0.00 in Rain Light Rain
4:36 AM 46.4°F 42.8°F 87% 30.21 in 2.5 miles WNW 9.2 mph 21.9 mph 0.01 in Rain Light Rain
4:48 AM 46.4°F 42.8°F 87% 30.21 in 3.0 miles WNW 10.4 mph 18.4 mph 0.01 in   Overcast
4:53 AM 46.9°F 43.0°F 86% 30.21 in 4.0 miles WNW 10.4 mph 17.3 mph 0.01 in   Overcast
5:02 AM 46.4°F 42.8°F 87% 30.21 in 1.8 miles WNW 10.4 mph 21.9 mph 0.00 in Rain Light Rain
5:08 AM 46.4°F 42.8°F 87% 30.21 in 3.0 miles NW 9.2 mph 19.6 mph 0.00 in Rain Light Rain
5:53 AM 46.9°F 43.0°F 86% 30.22 in 3.0 miles WNW 4.6 mph 18.4 mph 0.00 in   Overcast
6:45 AM 46.4°F 42.8°F 87% 30.23 in 2.5 miles WNW 4.6 mph - N/A   Overcast
6:53 AM 46.9°F 43.0°F 86% 30.24 in 2.5 miles West 6.9 mph - N/A   Overcast
7:07 AM 46.4°F 42.8°F 87% 30.24 in 1.5 miles Variable 5.8 mph - 0.00 in Rain Light Rain
7:18 AM 46.4°F 42.8°F 87% 30.25 in 3.0 miles WNW 8.1 mph 18.4 mph 0.01 in   Overcast
7:53 AM 46.9°F 43.0°F 86% 30.26 in 5.0 miles West 3.5 mph - 0.01 in   Overcast
8:53 AM 46.9°F 42.1°F 83% 30.28 in 4.0 miles WNW 4.6 mph - N/A   Haze
9:26 AM 46.4°F 42.8°F 87% 30.29 in 2.5 miles WNW 3.5 mph - N/A   Haze
9:38 AM 48.2°F 42.8°F 82% 30.29 in 4.0 miles WNW 3.5 mph - N/A   Haze
9:53 AM 48.0°F 43.0°F 83% 30.31 in 2.0 miles Variable 6.9 mph - N/A   Haze
10:05 AM 48.2°F 42.8°F 82% 30.30 in 3.0 miles WNW 6.9 mph - N/A   Haze
10:53 AM 48.0°F 43.0°F 83% 30.33 in 4.0 miles West 8.1 mph - N/A   Haze
11:15 AM 48.2°F 42.8°F 82% 30.33 in 2.0 miles West 6.9 mph - N/A   Haze
11:37 AM 48.2°F 42.8°F 82% 30.34 in 3.0 miles WNW 5.8 mph - N/A   Haze
11:53 AM 48.0°F 43.0°F 83% 30.34 in 4.0 miles West 9.2 mph - N/A   Haze
12:35 PM 48.2°F 44.6°F 87% 30.33 in 1.8 miles West 4.6 mph - N/A   Haze
12:48 PM 48.2°F 44.6°F 87% 30.33 in 0.8 miles West 6.9 mph - 0.00 in Rain Light Rain
12:53 PM 48.0°F 44.1°F 86% 30.34 in 0.5 miles West 6.9 mph - 0.00 in Fog , Rain Light Rain
1:53 PM 48.0°F 44.1°F 86% 30.35 in 0.5 miles West 4.6 mph - 0.02 in Fog , Rain Light Rain
2:45 PM 48.2°F 44.6°F 87% 30.35 in 1.0 miles West 8.1 mph - 0.02 in   Overcast
2:53 PM 48.0°F 44.1°F 86% 30.35 in 0.8 miles WSW 10.4 mph - 0.02 in   Overcast
3:53 PM 48.0°F 44.1°F 86% 30.36 in 0.5 miles West 10.4 mph - 0.03 in Fog Fog
4:42 PM 46.4°F 44.6°F 93% 30.35 in 1.2 miles SSW 4.6 mph - 0.01 in   Overcast
4:49 PM 46.4°F 44.6°F 93% 30.35 in 1.8 miles SW 5.8 mph - 0.01 in   Overcast
4:53 PM 46.9°F 44.1°F 90% 30.35 in 2.0 miles SW 4.6 mph - 0.01 in   Overcast
5:22 PM 46.4°F 42.8°F 87% 30.36 in 1.2 miles SW 5.8 mph - 0.00 in Rain Light Rain
5:34 PM 46.4°F 42.8°F 87% 30.37 in 0.8 miles WSW 4.6 mph - 0.01 in Rain Light Rain
5:53 PM 46.9°F 43.0°F 86% 30.38 in 1.0 miles WSW 12.7 mph - 0.03 in Rain Light Rain
6:06 PM 46.4°F 42.8°F 87% 30.37 in 1.0 miles WSW 9.2 mph - 0.03 in Rain Rain
6:19 PM 46.4°F 42.8°F 87% 30.37 in 1.8 miles WSW 9.2 mph - 0.05 in Rain Light Rain
6:39 PM 46.4°F 42.8°F 87% 30.37 in 1.2 miles WSW 9.2 mph - 0.07 in Rain Light Rain
6:53 PM 46.9°F 43.0°F 86% 30.37 in 1.8 miles SW 6.9 mph - 0.09 in Rain Light Rain
7:09 PM 46.4°F 42.8°F 87% 30.36 in 2.0 miles SW 6.9 mph - 0.02 in Rain Light Rain
7:45 PM 46.4°F 42.8°F 87% 30.35 in 4.0 miles South 4.6 mph - 0.05 in Rain Light Rain
7:53 PM 46.0°F 43.0°F 89% 30.35 in 4.0 miles South 5.8 mph - 0.05 in Rain Light Rain
8:05 PM 46.4°F 42.8°F 87% 30.35 in 1.8 miles South 4.6 mph - 0.00 in Rain Light Rain
8:11 PM 46.4°F 42.8°F 87% 30.34 in 0.8 miles South 4.6 mph - 0.01 in Rain Light Rain
8:27 PM 46.4°F 42.8°F 87% 30.34 in 0.8 miles Variable 3.5 mph - 0.03 in Rain Light Rain
8:44 PM 46.4°F 42.8°F 87% 30.34 in 1.0 miles South 5.8 mph - 0.04 in Rain Light Rain
8:53 PM 46.0°F 43.0°F 89% 30.34 in 0.8 miles South 3.5 mph - 0.05 in Rain Light Rain
9:11 PM 46.4°F 42.8°F 87% 30.34 in 1.0 miles Calm Calm - 0.02 in Rain Light Rain
9:53 PM 46.0°F 43.0°F 89% 30.32 in 1.0 miles Calm Calm - 0.09 in Rain Light Rain
10:06 PM 46.4°F 42.8°F 87% 30.32 in 2.0 miles Calm Calm - 0.01 in Rain Light Rain
10:21 PM 46.4°F 42.8°F 87% 30.32 in 1.8 miles WSW 3.5 mph - 0.02 in Rain Light Rain
10:30 PM 46.4°F 44.6°F 93% 30.33 in 1.0 miles South 4.6 mph - 0.03 in Rain Light Rain
10:38 PM 46.4°F 44.6°F 93% 30.33 in 0.8 miles Variable 3.5 mph - 0.03 in Rain Light Rain
10:53 PM 46.9°F 44.1°F 90% 30.33 in 1.0 miles South 3.5 mph - 0.05 in Rain Light Rain
11:37 PM 46.4°F 44.6°F 93% 30.33 in 0.8 miles Calm Calm - 0.03 in Rain Light Rain
11:53 PM 46.9°F 43.0°F 86% 30.33 in 0.8 miles SE 3.5 mph - 0.04 in Rain Light Rain
Moon Phase
Jan. 29 Feb. 03 Feb. 10 Feb. 17 Feb. 25
Sunrise:07:49 AM (PST) Moon Rise:08:35 PM (PST)1/29
Sunset:05:14 PM (PST) Moon Set:08:33 AM (PST)1/29

Copyright © 2014 The Weather Underground, Inc.